Regional Weather Roundup
Issued by NWS

Home | Current Version | Previous Version | Graphics & Text | Print | Product List | Glossary On
Versions: 1 2 3 4 5 6 7 8 9 10 11 12 13 14 15 16 17 18 19 20 21 22 23 24 25 26 27 28 29 30 31 32 33 34 35 36 37 38 39 40 41 42 43 44 45 46 47 48 49 50
000
ASUS45 KCYS 250710
RWRWY

WYOMING REGIONAL WEATHER ROUNDUP
NATIONAL WEATHER SERVICE CHEYENNE WY
1200 AM MST SUN JAN 25 2015

NOTE:  "FAIR" INDICATES FEW OR NO CLOUDS BELOW 12,000 FEET
WITH NO SIGNIFICANT WEATHER AND/OR OBSTRUCTIONS TO VISIBILITY.

WYZ001-250800-
YELLOWSTONE NATIONAL PARK

CITY           SKY/WX    TMP DP  RH WIND       PRES   REMARKS
LK YELLOWSTONE   N/A     23  20  88 CALM      30.36R
W YELLOWSTONE  NOT AVBL

$$
WYZ002>013-054>058-071-098>099-250800-
NORTHERN WYOMING

CITY           SKY/WX    TMP DP  RH WIND       PRES   REMARKS
JACKSON        CLOUDY    23  23 100 CALM      30.37S
CODY           FAIR      46  25  42 W12G21    30.16R
GREYBULL       FAIR      14  13  95 NW5       30.18F WCI   6
WORLAND        FAIR      20  17  88 S8        30.17S WCI  10
SHERIDAN       FAIR      31  27  85 CALM      30.11F
BUFFALO        FAIR      32  28  85 SW5       30.12F WCI  27
GILLETTE       FAIR      33  25  72 NW9       30.09F WCI  25
HULETT           N/A    N/A N/A N/A MISG        N/A
NEWCASTLE      FAIR      30  27  86 N10       30.07F WCI  21

$$
WYZ014>020-022>026-101>103-250800-
CENTRAL WYOMING

CITY           SKY/WX    TMP DP  RH WIND       PRES   REMARKS
BIG PINEY      FAIR      23  19  85 S3        30.32S
PINEDALE       PTSUNNY   30  27  86 W10       30.31S WCI  21
DUBOIS         CLOUDY    34  27  75 NW15G24   30.25F WCI  24
LANDER         FAIR      30  23  75 CALM      30.17F
RIVERTON       FAIR      34  23  64 W6        30.18F WCI  29
CASPER         FAIR      26  23  88 W8        30.16F WCI  18
DOUGLAS        MOCLDY    34  28  79 W12       30.15F WCI  25

$$
WYZ021-027>030-104>119-250800-
SOUTHERN WYOMING

CITY           SKY/WX    TMP DP  RH WIND       PRES   REMARKS
EVANSTON       MOCLDY    27  23  85 SW7       30.43F WCI  19
KEMMERER       CLOUDY    30  30 100 SW9       30.38F WCI  22
FORT BRIDGER   FAIR      33  31  92 W18       30.42F WCI  21
ROCK SPRINGS   FAIR      31  26  82 W25       30.31F WCI  17
DIXON          CLOUDY    31  25  78 W7        30.35F WCI  24
RAWLINS        FAIR      28  24  85 W22G31    30.24F WCI  14
SARATOGA       CLOUDY    30  27  86 W16       30.27R WCI  19
LARAMIE        CLOUDY    31  23  72 W13       30.16F WCI  21
CHEYENNE       CLOUDY    38  26  62 NW20G28   30.12F WCI  28
TORRINGTON     CLOUDY    39  24  55 NW18      30.10F WCI  30
PINE BLUFFS    DRIZZLE   36  28  75 NW21      30.14S WCI  24

$$


USA.gov is the U.S. government's official web portal to all federal, state and local government web resources and services.